Location: Apeadero de Los Molinos-Guadarrama
(40.7091°N, 4.0689°W)
Time: 15:55:01
(UTC+00:00)

ISS - Visible Passes

Search period start: 26 September 2021 00:00
Search period end: 06 October 2021 00:00
Orbit: 417 x 423 km, 51.6° (Epoch: 26 September)

Date Brightness Start Highest point End Pass type
(mag) Time Alt. Az. Time Alt. Az. Time Alt. Az.
26 Sep -1.1 19:02:56 10° NNW 19:04:35 13° N 19:06:13 10° NNE visible
26 Sep -0.6 20:39:52 10° NNW 20:40:17 12° NNW 20:40:17 12° NNW visible
27 Sep -1.4 19:52:45 10° NNW 19:54:48 16° N 19:54:48 16° N visible
28 Sep -1.3 19:05:38 10° NNW 19:07:31 14° N 19:09:22 10° NE visible
28 Sep -0.5 20:41:57 10° NW 20:42:21 12° NW 20:42:21 12° NW visible
29 Sep -1.8 19:54:57 10° NW 19:57:00 23° N 19:57:00 23° N visible
30 Sep -1.9 19:08:03 10° NNW 19:10:36 20° NNE 19:11:45 17° NE visible
30 Sep -0.3 20:44:25 10° NW 20:44:44 12° NW 20:44:44 12° NW visible
01 Oct -2.3 19:57:27 10° NW 19:59:36 34° NNW 19:59:36 34° NNW visible
02 Oct -2.9 19:10:36 10° NW 19:13:45 36° NNE 19:14:35 31° ENE visible
02 Oct -0.1 20:47:34 10° WNW 20:47:35 10° WNW 20:47:35 10° WNW visible
03 Oct -2.4 18:23:50 10° NW 18:26:43 26° NNE 18:29:37 10° E visible
03 Oct -2.1 20:00:27 10° WNW 20:02:42 35° W 20:02:42 35° W visible
04 Oct -3.8 19:13:32 10° NW 19:16:55 85° SW 19:17:58 41° SE visible
05 Oct -3.6 18:26:47 10° NW 18:30:07 58° NE 18:33:25 10° ESE visible
05 Oct -1.1 20:04:30 10° W 20:06:27 16° SW 20:06:27 16° SW visible
